Погода в Заркенте

Узбекистан     41°16′28″N   69°47′51″E
темп.,
°C
ветер,
м/с
пор.,
м/с
влажн.,
%
обл.,
%
осадки,
мм/ч
давл.,
гПа
погр.,
м
3 марта, ср
ср323:00+4юв3464100 0.0 102441
02:00+3юв2286100 0.7 102449
05:00+2ю2397100 3.3 1024120
08:00+3юв1294100 0.5 102479
11:00+6юз227598 0.6 1023490
14:00+8юз236179 0.3 10211112
17:00+7ююз226051 0.6 1021917
20:00+5вюв336082 0.1 102231
4 марта, чт
чт423:00+4вюв446587 0.1 102248
02:00+4вюв336128 0.0 102128
05:00+4вюв336217 0.0 102125
08:00+5вюв446031 0.0 102043
11:00+10ююв335266 0.0 1018962
14:00+10юз3652100 0.3 10161634
17:00+5всв2387100 2.4 1017183
20:00+6вюв4473100 2.3 101940
5 марта, пт
пт523:00+3ссз0296100 4.5 1023141
02:00+2зсз4599100 6.9 1025357
05:000зюз11100100 13.1 102983
08:000ссз1196100 0.2 1031165
11:00+3сз217359 0.2 1029416
14:00+5сз11600 0.0 1027691
17:00+6ю01560 0.0 1025357
20:00+3вюв43350 0.0 102527
6 марта, сб
сб623:00+4в44370 0.0 102325
02:00+5в333858 0.0 101923
05:00+5вюв334179 0.0 101623
08:00+6вюв2242100 0.0 101323
11:00+10юз1148100 0.0 1010222
14:00+8юз2350100 0.0 1011518
17:00+6ююз2261100 0.1 1011278
20:00+6ссв1170100 0.1 101324
7 марта, вс
вс723:00+4зсз1176100 0.1 101522
02:00+1юв1296100 1.9 1015144
05:00+2ююз1197100 5.7 101679
08:00+2ююв2496100 3.3 1018260
11:00+3ююз3394100 4.3 1018289
14:00+3зсз2192100 0.1 1018283
17:00+4сз1178100 0.1 1018379
20:00+3св2282100 0.0 101832